Tracking 30101 objects as of 14-Dec-2024
HD Live streaming from Space Station
objects crossing your sky now

ARIANE 5 R/B

Track ARIANE 5 R/B now!


NORAD ID: 40942
Int'l Code: 2015-054C
Perigee: 222.3 km
Apogee: 29,822.1 km
Inclination: 6.7 °
Period: 519.0 minutes
Semi major axis: 21393 km
RCS: Unknown
Launch date: September 30, 2015
Source: France (FR)
Launch site: FRENCH GUIANA (FRGUI)

Note: This is a ROCKET BODY
Your satellite tracking list
Your tracking list is empty




NASA's NSSDC Master Catalog

Two Line Element Set (TLE):
1 40942U 15054C   24349.27335747  .00011945  00000-0  11149-2 0  9992
2 40942   6.6685  18.4077 6918041  25.6189 356.6968  2.77453474 83602
Source of the keplerian elements: AFSPC